カタログに戻る

FENGYUN 1C DEB

運用中PO
NORAD 32340·DEBRIS·🇨🇳 China

打ち上げ May 10, 1999 から Taiyuan Satellite Launch Center

Loading…

次のパス (今後24時間)

TLE

最新Source: Space-Track

元期: Sep 14, 2026, 21:28 UTC

1 32340U 99025CYH 26257.89463225  .00010424  00000-0  13071-2 0  9993
2 32340  98.9655 300.3455 0031331 143.8055 216.5283 14.82069229 12387

AllMySatでFENGYUN 1C DEBをリアルタイム追跡

Download on the App Store